Location: Barcelona
(41.3829°N, 2.1774°E)
Time: 21:44:45
(UTC+00:00)

ISS - Pass Details

Date: 08 July 2025
Orbit: 413 x 417 km, 51.6° (Epoch: 13 July)

Event Time Altitude Azimuth Distance (km) Brightness Sun altitude
Rises 00:48:42 0° 304° (NW) 2,357 0.3 -25.0°
Reaches altitude 10° 00:51:29 10° 329° (NNW) 1,494 -0.4 -24.9°
Maximum altitude 00:53:30 15° 7° (N) 1,229 -0.5 -24.8°
Drops below altitude 10° 00:55:32 10° 44° (NE) 1,495 -0.2 -24.7°
Sets 00:58:19 0° 69° (ENE) 2,358 0.6 -24.6°
